Regional Weather Roundup
Issued by NWS Northern Indiana

Home | Current Version | Previous Version | Text Only | Print | Product List | Glossary On
Versions: 1 2 3 4 5 6 7 8 9 10 11 12 13 14 15 16 17 18 19 20 21 22 23 24 25 26 27 28 29 30 31 32 33 34 35 36 37 38 39 40 41 42 43 44 45 46 47 48 49 50
000
ASUS43 KIWX 190410
RWRIWX

KIWX WEATHER ROUNDUP
NATIONAL WEATHER SERVICE NORTHERN INDIANA
1200 AM EDT FRI SEP 19 2014

NOTE: "FAIR" INDICATES FEW OR NO CLOUDS BELOW 12,000 FEET WITH NO
SIGNIFICANT WEATHER AND/OR OBSTRUCTIONS TO VISIBILITY.

* THESE STATIONS ARE NOT UNDER NWS QUALITY CONTROL. THEY ALSO MAY NOT
  REPORT WEATHER SUCH AS PRECIPITATION OR FOG.

INZ001>027-190500-
NORTHERN INDIANA

CITY           SKY/WX    TMP DP  RH WIND       PRES   REMARKS
GARY*          CLEAR     62  58  86 NE6       30.16R
VALPARAISO     CLEAR     52  51  97 NE3       30.16R
MICHIGAN CITY* CLEAR     52  52 100 CALM      30.17S
LAPORTE*       PTCLDY    51  51  98 E6        30.16S
KNOX*          CLEAR     50  48  92 CALM      30.15S
SOUTH BEND     CLEAR     59  51  75 E8        30.18R
GOSHEN         CLEAR     55  50  83 E6        30.18R
MONTICELLO*    CLEAR     52  51  95 CALM      30.14R
LOGANSPORT*    CLEAR     50  46  87 CALM      30.16R
ROCHESTER*     CLEAR     54  50  87 CALM      30.16R
WARSAW*        CLEAR     54  50  87 E6        30.17S
ANGOLA*        CLEAR     54  50  87 E7        30.20R
FORT WAYNE     CLEAR     54  49  83 E5        30.18R
HUNTINGTON*    CLEAR     54  49  85 E3        30.17R
PERU/GRISSOM   CLEAR     55  53  95 E6        30.15R
MARION*        CLEAR     54  48  78 E5        30.17R

$$
INZ028>050-190500-
CENTRAL INDIANA

CITY           SKY/WX    TMP DP  RH WIND       PRES   REMARKS
LAFAYETTE      CLEAR     55  50  83 CALM      30.13S
KOKOMO*        CLEAR     52  46  82 E7        30.15S
MUNCIE*        CLEAR     51  46  83 E6        30.16R
INDIANAPOLIS   CLEAR     60  49  66 E7        30.13R

$$
MIZ043>046-050>051-056>058-064>065-071>073-077>080-190500-
SOUTHWEST LOWER MICHIGAN

CITY           SKY/WX    TMP DP  RH WIND       PRES   REMARKS
BATTLE CREEK   CLEAR     54  49  83 E6        30.21R
BENTON HARBOR  CLEAR     53  51  93 E5        30.17R
COLDWATER*     CLEAR     55  52  90 E5        30.20R
HILLSDALE*     PTCLDY    51  51 100 E3        30.20S FOG
HOLLAND        CLEAR     53  50  89 E6        30.19S
GRAND RAPIDS   CLEAR     51  48  89 E8        30.21R
KALAMAZOO      CLEAR     53  49  86 CALM      30.20R
STURGIS*       CLEAR     54  52  94 E5        30.19R
THREE RIVERS*  FAIR      55  51  87 E5        30.19S

$$
OHZ001>008-015>018-024>025-190500-
NORTHWEST OHIO

CITY           SKY/WX    TMP DP  RH WIND       PRES   REMARKS
WAUSEON*       MOCLDY    52  52 100 E7        30.21R
DEFIANCE       CLEAR     56  51  84 NE5       30.20R
FINDLAY        CLEAR     56  52  86 NE7       30.18R
TOLEDO EXPRESS MOCLDY    55  51  86 NE7       30.20R
TOLEDO METCALF MOCLDY    57  50  77 NE8       30.22R
LIMA           CLEAR     52  49  89 E5        30.19R

$$
&&


USA.gov is the U.S. government's official web portal to all federal, state and local government web resources and services.